Regional Weather Roundup
Issued by NWS

Home | Current Version | Previous Version | Text Only | Print | Product List | Glossary Off
Versions: 1 2 3 4 5 6 7 8 9 10 11 12 13 14 15 16 17 18 19 20 21 22 23 24 25 26 27 28 29 30 31 32 33 34 35 36 37 38 39 40 41 42 43 44 45 46 47 48 49 50

369
ASUS43 KIND 221859
RWRIN

WEATHER ROUNDUP FOR INDIANA
NATIONAL WEATHER SERVICE INDIANAPOLIS IN
300 PM EDT WED MAR 22 2017

NOTE: "FAIR" INDICATES FEW OR NO CLOUDS BELOW 12,000 FEET WITH NO
SIGNIFICANT WEATHER AND/OR OBSTRUCTIONS TO VISIBILITY.

* - STATION DOES NOT REPORT WEATHER SUCH AS PRECIPITATION OR FOG.

+ - STATION NOT QUALITY CONTROLLED BY THE NATIONAL WEATHER SERVICE.
    USE DATA WITH CAUTION...ESPECIALLY DEWPOINT AND RELATIVE
    HUMIDITY OBSERVATIONS.

INZ001>003-010>013-019-020-222000-
NORTHWEST INDIANA

CITY           SKY/WX    TMP DP  RH WIND       PRES   REMARKS
GARY /AIRPORT/ MOSUNNY   34  14  44 NE12      30.59F WCI  25
KNOX *+        SUNNY     36 -13  12 CALM      30.55F
MONTICELLO +   SUNNY     35  16  45 E6        30.52F WCI  30

$$

LMZ046-743>745-222000-
SOUTHERN LAKE MICHIGAN

STATION/POSITION TIME  TEMP    WIND        PRES    WAVE
                       AIR SEA DIR/SP/G            HT
                 (UTC) (F)     (DEG/KT/KT) (MB)    (FT)
BURNS HARBOR     1840   27      20/  8/ 11 1035.9S
MICHIGAN CITY    1830   27      10/ 11/ 13   N/A

$$

INZ004-005-014>016-021>024-222000-
NORTH CENTRAL INDIANA

CITY           SKY/WX    TMP DP  RH WIND       PRES   REMARKS
ELKHART        SUNNY     34   9  35 CALM      30.55F
GOSHEN         SUNNY     35  11  36 NE8       30.54F WCI  29
SOUTH BEND     SUNNY     35  10  35 MISG      30.55F

$$

INZ006>009-017-018-025>027-222000-
NORTHEAST INDIANA

CITY           SKY/WX    TMP DP  RH WIND       PRES   REMARKS
ANGOLA *+      SUNNY     34  14  44 VRB5      30.53F WCI  30
FORT WAYNE     MOSUNNY   34  14  43 VRB7      30.54F WCI  28
KENDALLVILLE + SUNNY     34  11  38 E6        30.53F WCI  28

$$

INZ028-029-035-036-043>045-051>053-222000-
WEST CENTRAL INDIANA

CITY           SKY/WX    TMP DP  RH WIND       PRES   REMARKS
CRAWFORDSVL +  SUNNY     36  19  51 NE12G20   30.50F
GREENCASTLE +  SUNNY     37  18  44 E12       30.49F
LAFAYETTE      SUNNY     36  18  48 E12       30.52F
TERRE HAUTE    SUNNY     42  17  36 NE16G24   30.48F

$$

INZ030>032-037>040-046>048-054>057-064-065-222000-
CENTRAL INDIANA

CITY           SKY/WX    TMP DP  RH WIND       PRES   REMARKS
ANDERSON       SUNNY     36  19  51 NE12      30.51F
CP ATTERBURY + SUNNY     39  18  41 E13G18    30.50F
COLUMBUS       SUNNY     39  19  45 NE12G17   30.50F
GREENWOOD *+   SUNNY     38  20  48 NE9G17    30.50F
INDIANAPOLIS   MOSUNNY   38  15  39 NE9       30.49F
-EAGLE CREEK   SUNNY     39  17  41 E10G18    30.49F
KOKOMO +       SUNNY     35  21  56 NE9G18    30.53F WCI  28
SHELBYVILLE    SUNNY     40  20  44 E13       30.49F

$$

INZ033-034-041-042-049-050-058-059-222000-
EAST CENTRAL INDIANA

CITY           SKY/WX    TMP DP  RH WIND       PRES   REMARKS
MUNCIE         SUNNY     36  19  50 E13       30.51F
RICHMOND +     SUNNY     34  19  55 NE9       30.50F WCI  26

$$

INZ060-061-067>069-081>083-085>088-222000-
SOUTHWEST INDIANA

CITY           SKY/WX    TMP DP  RH WIND       PRES   REMARKS
EVANSVILLE     SUNNY     51  17  26 E14       30.41F
HUNTINGBURG *+ SUNNY     47  21  35 N13G18    30.41F

$$

INZ062-063-066-070>080-084-089>092-222000-
SOUTH CENTRAL AND SOUTHEAST INDIANA

CITY           SKY/WX    TMP DP  RH WIND       PRES   REMARKS
BLOOMINGTON    SUNNY     43  12  28 NE12G21   30.46F
MADISON *+     SUNNY     43  10  26 N8G18     30.47F
SEYMOUR +      SUNNY     43  19  39 NE10      30.47F

$$





USA.gov is the U.S. government's official web portal to all federal, state and local government web resources and services.